Vorticity
-2 4 3 10 10 9 6 9 8 15 11 8 8 6 9 18 28 19 22 7 -11 8 27 -26 -9 26 -3 9 7 12 10 9 8 14 10 10 8 7 13 7 1 3 9
17 21 5 15 9 7 7 14 8 8 6 5 7 7 12 15 20 8 2 16 11 1 -11 15 28 6 11 10 11 7 14 11 10 8 12 5 13 15 13 5 3 14 6
19 14 10 -11 15 6 9 7 4 4 3 5 7 5 8 7 7 16 -2 3 10 -7 5 -0 -8 6 14 8 9 13 12 12 13 9 6 9 6 1 5 8 5 -2 11
3 8 8 17 11 6 5 2 2 3 5 6 6 7 9 7 4 8 9 15 7 19 -7 24 18 9 7 16 12 11 13 11 9 14 4 2 7 8 7 5 11 11 6
23 5 11 4 3 2 2 5 4 6 9 8 9 9 9 13 12 10 20 8 8 17 16 8 9 14 11 12 11 12 10 8 8 6 5 9 7 11 8 5 9 8 4
4 2 3 -0 1 4 2 10 6 6 11 14 12 11 9 9 10 11 17 15 10 8 12 11 10 10 7 7 9 10 10 8 8 8 10 11 10 10 13 10 8 11 7
5 4 6 2 4 15 5 5 12 14 10 8 9 10 11 12 15 12 8 9 13 9 7 7 9 10 10 9 7 6 5 7 7 8 9 14 10 10 16 13 9 14 13
4 1 11 16 4 5 10 13 10 9 10 11 11 12 12 11 14 11 10 6 7 8 9 9 9 7 7 8 8 7 8 9 9 13 13 10 12 13 8 12 14 16 16
24 14 4 5 9 12 12 9 10 11 10 10 14 15 15 9 10 9 8 8 9 9 9 5 7 10 8 7 5 6 7 8 12 14 20 22 12 9 7 9 12 10 9
4 3 6 10 11 9 8 10 9 11 14 15 11 11 9 8 7 10 9 8 7 5 8 9 8 7 6 6 7 9 9 18 19 19 18 12 3 9 14 14 11 7 17
4 7 11 10 8 8 7 8 12 13 11 10 11 9 7 8 7 6 6 7 7 9 8 7 6 5 8 11 14 18 20 20 20 18 20 22 19 16 -3 8 13 8 16
8 6 8 8 8 7 8 12 14 11 12 11 10 10 9 7 7 7 10 8 9 7 6 6 8 10 12 14 15 16 17 18 18 18 21 24 31 -13 8 21 28 6 16
8 9 9 7 6 7 12 14 9 12 9 8 8 8 7 8 7 12 7 8 6 6 8 9 10 11 14 15 16 18 19 18 20 23 25 23 24 43 38 4 7 12 25
7 8 7 6 7 9 12 11 14 11 9 9 9 7 7 7 9 7 7 7 7 8 9 9 10 12 15 17 18 18 15 17 17 18 18 12 27 21 31 11 12 9 15
7 5 6 5 9 13 15 11 11 9 9 9 7 8 9 8 7 7 7 8 7 8 9 9 11 13 16 16 15 15 16 19 27 12 11 9 24 11 8 17 10 11 23
3 7 9 7 15 13 13 12 10 9 10 8 9 9 7 8 8 8 8 8 8 9 9 10 13 15 16 15 15 16 17 25 30 18 6 7 16 12 13 23 10 7 19
16 7 4 11 18 14 11 8 5 10 8 8 8 8 8 9 6 6 7 8 10 9 9 13 15 15 14 14 17 16 12 22 23 33 6 -1 21 11 26 8 12 10 18
4 6 9 19 17 10 2 11 7 7 6 6 7 7 6 7 4 5 6 8 10 10 12 14 14 14 13 14 16 14 14 19 26 25 19 -1 12 18 -5 9 13 14 9
14 19 21 11 4 14 9 6 6 7 6 7 7 6 5 6 6 7 7 8 10 11 11 14 14 13 12 18 14 12 11 18 19 21 29 41 33 23 16 11 15 11 8
20 16 11 12 13 14 8 7 6 7 7 5 6 5 6 7 7 7 8 9 10 13 12 14 14 13 17 14 12 13 11 16 31 5 23 2 5 16 19 13 19 10 7
6 10 14 13 7 6 6 6 5 4 6 6 6 7 7 7 9 9 9 10 12 13 13 13 12 13 12 13 17 17 20 4 29 19 6 21 7 3 5 16 15 11 6
13 13 11 8 6 6 5 5 7 6 6 6 5 6 8 9 9 9 10 11 12 13 14 13 12 14 14 17 16 14 21 1 22 29 9 7 3 2 7 16 9 8 16
12 8 5 6 7 7 5 5 5 5 7 8 8 8 10 10 10 11 11 12 13 14 13 12 13 14 14 16 15 12 20 16 8 24 26 12 0 6 5 14 9 19 9
6 8 9 8 9 9 9 10 9 7 7 9 11 12 11 10 11 12 13 13 14 13 13 13 14 14 15 13 13 20 20 17 2 21 21 18 22 9 8 17 12 11 6
6 6 6 6 6 7 8 8 9 10 12 13 12 11 11 12 13 14 14 14 13 13 13 14 14 15 16 15 18 23 18 17 12 14 17 21 21 17 10 13 17 10 5
7 7 7 7 8 9 10 10 12 12 13 12 12 12 13 13 14 14 14 13 13 13 14 14 14 16 14 14 20 24 19 18 18 7 21 20 19 9 10 16 15 9 7
Height
3087 3092 3093 3093 3094 3098 3100 3102 3104 3104 3103 3103 3102 3101 3099 3097 3095 3094 3091 3090 3086 3084 3082 3080 3078 3074 3071 3068 3065 3061 3058 3055 3049 3046 3044 3043 3040 3037 3033 3028 3025 3022 3019
3083 3082 3087 3089 3091 3093 3096 3098 3097 3098 3097 3097 3095 3094 3092 3089 3088 3086 3085 3080 3078 3076 3076 3072 3069 3066 3063 3059 3056 3053 3049 3045 3040 3035 3035 3034 3031 3027 3023 3020 3017 3013 3009
3076 3080 3081 3083 3087 3088 3090 3091 3092 3092 3091 3089 3087 3085 3083 3081 3079 3078 3075 3073 3071 3069 3066 3063 3060 3056 3053 3050 3047 3042 3039 3035 3031 3027 3024 3023 3020 3018 3014 3011 3007 3003 2999
3073 3074 3077 3081 3083 3083 3084 3084 3084 3083 3082 3080 3078 3076 3074 3073 3071 3068 3065 3062 3060 3059 3056 3053 3050 3047 3044 3041 3037 3034 3030 3026 3023 3019 3014 3012 3009 3007 3004 3000 2996 2994 2990
3068 3072 3075 3076 3077 3077 3077 3077 3076 3076 3074 3072 3070 3068 3066 3064 3062 3058 3055 3053 3051 3049 3047 3044 3041 3038 3035 3032 3028 3025 3022 3018 3014 3010 3005 3001 2998 2996 2993 2990 2985 2982 2980
3069 3068 3070 3070 3070 3071 3071 3070 3069 3068 3066 3064 3062 3060 3057 3055 3051 3048 3046 3045 3043 3041 3038 3035 3032 3029 3026 3023 3019 3016 3012 3008 3004 3000 2996 2991 2988 2985 2982 2979 2975 2972 2969
3063 3063 3065 3065 3065 3064 3063 3062 3060 3059 3057 3055 3053 3050 3047 3045 3042 3040 3039 3037 3035 3033 3030 3027 3023 3019 3015 3012 3008 3003 3000 2997 2992 2987 2981 2979 2975 2974 2971 2966 2964 2961 2957
3056 3057 3057 3057 3057 3056 3055 3053 3051 3049 3047 3045 3043 3041 3039 3037 3035 3033 3032 3030 3028 3025 3022 3019 3015 3011 3007 3002 2996 2991 2987 2982 2978 2973 2968 2964 2962 2960 2957 2955 2953 2949 2947
3049 3049 3050 3050 3049 3048 3047 3045 3043 3041 3039 3037 3035 3033 3031 3028 3028 3027 3025 3022 3019 3017 3014 3009 3005 3002 2998 2991 2984 2978 2973 2969 2965 2959 2954 2950 2949 2946 2944 2943 2941 2939 2937
3042 3043 3042 3042 3040 3040 3039 3037 3035 3033 3031 3029 3028 3026 3023 3019 3019 3020 3017 3013 3010 3007 3004 3000 2995 2990 2985 2979 2971 2963 2955 2952 2946 2941 2938 2936 2935 2934 2933 2932 2931 2929 2927
3035 3035 3034 3034 3033 3032 3030 3029 3026 3024 3023 3021 3019 3017 3015 3012 3010 3010 3008 3004 2999 2996 2992 2988 2984 2978 2972 2966 2958 2950 2941 2934 2929 2924 2921 2921 2922 2918 2919 2921 2920 2919 2918
3028 3027 3027 3025 3025 3023 3022 3020 3018 3017 3015 3014 3012 3010 3007 3004 3000 3000 2998 2994 2989 2985 2981 2976 2971 2965 2958 2951 2943 2935 2927 2920 2914 2909 2906 2905 2906 2907 2907 2908 2908 2909 2909
3019 3019 3019 3018 3017 3015 3013 3011 3009 3008 3007 3006 3004 3002 2998 2996 2992 2992 2988 2984 2979 2975 2970 2965 2958 2952 2945 2938 2931 2923 2915 2908 2902 2897 2893 2892 2892 2893 2896 2898 2900 2900 2900
3012 3011 3010 3009 3007 3005 3003 3001 3002 3000 2998 2996 2994 2992 2990 2986 2984 2981 2978 2975 2970 2966 2959 2953 2946 2939 2932 2925 2918 2911 2905 2898 2893 2889 2885 2884 2883 2884 2886 2889 2890 2891 2892
3002 3002 3001 2999 2997 2994 2995 2993 2992 2990 2989 2987 2985 2983 2981 2978 2974 2971 2967 2964 2958 2954 2947 2940 2933 2926 2919 2912 2906 2899 2893 2888 2884 2881 2879 2877 2877 2879 2879 2881 2883 2883 2884
2991 2991 2990 2988 2986 2984 2985 2983 2983 2982 2981 2979 2977 2974 2971 2968 2963 2960 2956 2952 2947 2942 2935 2928 2921 2913 2906 2900 2894 2889 2883 2877 2873 2871 2872 2871 2871 2872 2874 2874 2876 2876 2878
2981 2980 2978 2976 2975 2974 2973 2975 2975 2974 2972 2971 2969 2967 2963 2960 2953 2950 2945 2942 2936 2931 2924 2916 2909 2903 2897 2890 2885 2879 2874 2869 2864 2862 2864 2865 2864 2866 2867 2868 2869 2870 2871
2970 2969 2967 2965 2964 2964 2965 2965 2965 2965 2963 2962 2961 2958 2955 2952 2944 2940 2936 2931 2925 2918 2912 2906 2899 2893 2887 2882 2877 2872 2867 2862 2858 2856 2856 2858 2858 2860 2861 2862 2863 2864 2865
2957 2955 2953 2953 2955 2956 2956 2956 2956 2955 2955 2951 2948 2944 2942 2938 2932 2928 2924 2919 2914 2908 2901 2895 2888 2883 2878 2872 2868 2864 2860 2855 2853 2851 2851 2849 2852 2854 2855 2856 2857 2858 2860
2943 2945 2948 2948 2948 2948 2949 2949 2948 2948 2947 2944 2940 2936 2932 2928 2924 2919 2913 2908 2902 2896 2890 2884 2879 2874 2869 2864 2860 2856 2854 2850 2847 2847 2846 2846 2846 2848 2849 2850 2851 2853 2854
2941 2941 2941 2941 2941 2941 2940 2941 2940 2939 2937 2933 2929 2925 2922 2917 2913 2907 2902 2896 2890 2884 2879 2873 2869 2864 2859 2855 2851 2848 2845 2843 2840 2840 2841 2840 2842 2842 2843 2844 2846 2847 2849
2936 2936 2935 2935 2934 2934 2933 2932 2931 2929 2926 2922 2918 2913 2910 2906 2901 2896 2890 2884 2879 2873 2868 2863 2858 2854 2850 2846 2842 2839 2837 2836 2833 2832 2834 2834 2835 2837 2838 2839 2840 2842 2843
2931 2930 2928 2927 2926 2926 2924 2922 2919 2917 2914 2910 2906 2902 2898 2893 2889 2883 2878 2873 2867 2862 2858 2853 2849 2844 2840 2837 2833 2830 2828 2827 2826 2824 2824 2827 2829 2830 2832 2833 2835 2836 2837
2925 2923 2922 2920 2919 2916 2913 2911 2907 2904 2901 2897 2893 2889 2884 2880 2876 2871 2866 2861 2857 2852 2848 2843 2839 2835 2831 2827 2824 2821 2818 2817 2817 2816 2816 2818 2820 2823 2825 2827 2828 2830 2832
2918 2916 2913 2911 2908 2905 2902 2899 2895 2891 2887 2884 2880 2876 2871 2867 2862 2858 2854 2850 2846 2841 2837 2833 2829 2825 2821 2818 2815 2812 2810 2809 2809 2809 2809 2810 2812 2815 2818 2820 2822 2825 2827
2909 2906 2903 2900 2896 2893 2889 2886 2882 2879 2875 2870 2866 2863 2858 2854 2850 2846 2842 2838 2835 2831 2827 2824 2820 2816 2813 2809 2806 2803 2801 2801 2801 2802 2802 2804 2806 2809 2811 2814 2817 2819 2822